Terminal Aerodrome Forecast
Issued by NWS

Home | Current Version | Previous Version | Text Only | Print | Product List | Glossary On
Versions: 1 2 3 4 5 6 7 8 9 10 11 12 13 14 15 16 17
000
FTUS44 KMOB 192300 RRA
TAFBFM
TAF
KBFM 192358Z 2000/2024 01009KT P6SM SKC
     FM201500 03009KT P6SM FEW040 SCT250=

USA.gov is the U.S. government's official web portal to all federal, state and local government web resources and services.